This demonstration page uses our WeatherBlox Daily Observations layout. Learn more.

Left ArrowRight Arrow

38.88101, -77.10428

Hourly Observations for June 20, 2021

Temp ( °F °C ) Dew Point ( °F °C ) Humidity (%) Winds ( mph kmh ) Pressure ( in mb ) Visibility ( mi km ) Precip ( " mm )
12:15 am 00:15 Cloudy with Nearby Thunderstorms 78 25.6 69 20.6 74 74 SSW 8 13 29.85 1011 10 16 0.01 0.25
12:30 am 00:30 Cloudy 77 25 69 20.6 77 77 SSW 10 17 29.84 1010 10 16 0.01 0.25
12:52 am 00:52 Cloudy with Light Rain 76 24.4 68 20 77 77 WNW 7 11 29.83 1010 6 10 0.16 4.06
1:52 am 01:52 Cloudy 75 23.9 70 21.1 84 84 SW 3 6 29.84 1010 10 16 0.01 0.25
2:52 am 02:52 Cloudy 75 23.9 69 20.6 82 82 N 6 9 29.83 1010 10 16 N/A
3:52 am 03:52 Mostly Cloudy 73 22.8 69 20.6 87 87 S 3 6 29.83 1010 10 16 N/A
4:52 am 04:52 Mostly Cloudy 74 23.3 70 21.1 88 88 SSW 5 7 29.83 1010 7 11 N/A
5:52 am 05:52 Mostly Cloudy with Mist and Fog 73 22.8 70 21.1 90 90 SSW 3 6 29.84 1011 6 10 N/A
6:52 am 06:52 Mostly Cloudy 74 23.3 70 21.1 88 88 S 5 7 29.86 1011 9 14 N/A
7:52 am 07:52 Mostly Cloudy 75 23.9 70 21.1 84 84 SSE 3 6 29.88 1012 10 16 N/A
8:52 am 08:52 Cloudy 77 25 70 21.1 79 79 SSE 5 7 29.88 1012 10 16 N/A
9:52 am 09:52 Mostly Cloudy 79 26.1 71 21.7 77 77 S 8 13 29.86 1011 10 16 N/A
10:52 am 10:52 Mostly Cloudy 82 27.8 72 22.2 72 72 SSE 8 13 29.85 1011 10 16 N/A
11:52 am 11:52 Mostly Cloudy 85 29.4 72 22.2 65 65 S 7 11 29.84 1011 10 16 N/A
12:52 pm 12:52 Mostly Cloudy 86 30 72 22.2 63 63 S 13 20 29.82 1010 10 16 N/A
1:52 pm 13:52 Mostly Cloudy 87 30.6 71 21.7 59 59 S 13 20 29.80 1009 10 16 N/A
2:52 pm 14:52 Mostly Cloudy 88 31.1 70 21.1 55 55 S 12 19 29.79 1009 10 16 N/A
3:52 pm 15:52 Partly Cloudy 88 31.1 71 21.7 57 57 S 15 24 29.78 1009 10 16 N/A
4:52 pm 16:52 Mostly Cloudy 87 30.6 72 22.2 61 61 S 14 22 29.78 1008 10 16 N/A
5:52 pm 17:52 Mostly Cloudy 87 30.6 72 22.2 61 61 S 14 22 29.77 1008 9 14 N/A
6:52 pm 18:52 Mostly Cloudy 86 30 71 21.7 61 61 S 14 22 29.78 1008 10 16 N/A
7:52 pm 19:52 Mostly Cloudy 84 28.9 72 22.2 67 67 S 12 19 29.78 1009 10 16 N/A
8:52 pm 20:52 Mostly Cloudy 83 28.3 70 21.1 65 65 S 14 22 29.79 1009 10 16 N/A
9:52 pm 21:52 Partly Cloudy 81 27.2 70 21.1 69 69 S 12 19 29.78 1009 10 16 N/A
10:52 pm 22:52 Partly Cloudy 80 26.7 71 21.7 74 74 S 14 22 29.79 1009 10 16 N/A
11:52 pm 23:52 Mostly Cloudy 78 25.6 71 21.7 79 79 S 14 22 29.79 1009 10 16 N/A

Powered by AerisWeather